• In Russia
  • List of Countries
  • For 7 days
  • Water Temperature
  • Satellite Maps
  • Weather Map
  • Weather Widgets
  • user-avatar
    Login

    Hourly Weather Nakhchivan

    Today, 27 March, Monday

    Time Temperature Precipitation Wind Pressure Humidity
    00:00 +8°C° 0 mm 2 mps 687 mmHg 49%
    01:00 +7°C° 0 mm 2 mps 687 mmHg 50%
    02:00 +7°C° 0 mm 2 mps 686 mmHg 51%
    03:00 +8°C° 0 mm 1 mps 685 mmHg 56%
    04:00 +7°C° 0 mm 2 mps 685 mmHg 58%
    05:00 +7°C° 0 mm 2 mps 685 mmHg 59%
    06:00 +6°C° 0 mm 2 mps 686 mmHg 60%
    07:00 +8°C° 0 mm 2 mps 686 mmHg 56%
    08:00 +10°C° 0 mm 2 mps 686 mmHg 52%
    09:00 +13°C° 0 mm 2 mps 686 mmHg 46%
    10:00 +14°C° 0 mm 2 mps 686 mmHg 44%
    11:00 +14°C° 0 mm 3 mps 686 mmHg 42%
    12:00 +16°C° 0 mm 3 mps 686 mmHg 39%
    13:00 +17°C° 0 mm 3 mps 685 mmHg 38%
    14:00 +17°C° 0 mm 3 mps 685 mmHg 37%
    15:00 +17°C° 0 mm 4 mps 684 mmHg 36%
    16:00 +16°C° 0.1 mm 3 mps 684 mmHg 39%
    17:00 +14°C° 0.1 mm 3 mps 684 mmHg 43%
    18:00 +14°C° 0.1 mm 2 mps 684 mmHg 46%
    19:00 +13°C° 0 mm 2 mps 684 mmHg 49%
    20:00 +12°C° 0 mm 2 mps 684 mmHg 52%
    21:00 +10°C° 0 mm 2 mps 685 mmHg 54%
    22:00 +10°C° 0 mm 2 mps 684 mmHg 56%
    23:00 +9°C° 0 mm 2 mps 684 mmHg 57%

    Tomorrow, 28 March, Tuesday

    Time Temperature Precipitation Wind Pressure Humidity
    00:00 +9°C° 0 mm 2 mps 684 mmHg 58%
    01:00 +9°C° 0 mm 2 mps 684 mmHg 59%
    02:00 +8°C° 0 mm 2 mps 683 mmHg 61%
    03:00 +8°C° 0 mm 2 mps 683 mmHg 62%
    04:00 +8°C° 0 mm 2 mps 683 mmHg 63%
    05:00 +7°C° 0 mm 2 mps 683 mmHg 64%
    06:00 +7°C° 0 mm 2 mps 683 mmHg 66%
    07:00 +9°C° 0.1 mm 2 mps 683 mmHg 62%
    08:00 +10°C° 0.1 mm 2 mps 684 mmHg 59%
    09:00 +12°C° 0.1 mm 2 mps 684 mmHg 55%
    10:00 +13°C° 0.1 mm 2 mps 684 mmHg 52%
    11:00 +14°C° 0.1 mm 3 mps 684 mmHg 48%
    12:00 +16°C° 0.1 mm 3 mps 684 mmHg 45%
    13:00 +16°C° 0.3 mm 3 mps 684 mmHg 44%
    14:00 +16°C° 0.3 mm 3 mps 684 mmHg 43%
    15:00 +16°C° 0.3 mm 3 mps 684 mmHg 42%
    16:00 +14°C° 0.2 mm 3 mps 684 mmHg 46%
    17:00 +13°C° 0.2 mm 3 mps 685 mmHg 49%
    18:00 +12°C° 0.2 mm 3 mps 685 mmHg 52%
    19:00 +12°C° 0.1 mm 2 mps 685 mmHg 55%
    20:00 +10°C° 0.1 mm 2 mps 686 mmHg 59%
    21:00 +10°C° 0.1 mm 1 mps 686 mmHg 62%
    22:00 +10°C° 0 mm 1 mps 686 mmHg 63%
    23:00 +10°C° 0 mm 1 mps 686 mmHg 63%

    Day after tomorrow, 29 March, Wednesday

    Time Temperature Precipitation Wind Pressure Humidity
    00:00 +9°C° 0 mm 1 mps 686 mmHg 64%
    01:00 +9°C° 0 mm 1 mps 686 mmHg 65%
    02:00 +9°C° 0 mm 1 mps 686 mmHg 66%
    03:00 +9°C° 0 mm 1 mps 686 mmHg 66%
    04:00 +8°C° 0 mm 1 mps 686 mmHg 68%
    05:00 +8°C° 0 mm 1 mps 686 mmHg 70%
    06:00 +7°C° 0 mm 1 mps 686 mmHg 71%
    07:00 +8°C° 0 mm 1 mps 687 mmHg 66%
    08:00 +10°C° 0 mm 1 mps 687 mmHg 61%
    09:00 +11°C° 0 mm 1 mps 687 mmHg 56%
    10:00 +12°C° 0 mm 1 mps 687 mmHg 52%
    11:00 +13°C° 0 mm 1 mps 687 mmHg 49%
    12:00 +14°C° 0 mm 2 mps 687 mmHg 45%
    13:00 +15°C° 0 mm 2 mps 687 mmHg 43%
    14:00 +15°C° 0 mm 2 mps 687 mmHg 40%
    15:00 +16°C° 0 mm 2 mps 687 mmHg 38%
    16:00 +15°C° 0 mm 2 mps 687 mmHg 41%
    17:00 +14°C° 0 mm 2 mps 687 mmHg 43%
    18:00 +13°C° 0 mm 2 mps 688 mmHg 46%
    19:00 +12°C° 0 mm 2 mps 688 mmHg 49%
    20:00 +11°C° 0 mm 1 mps 688 mmHg 51%
    21:00 +10°C° 0 mm 1 mps 689 mmHg 54%
    22:00 +10°C° 0 mm 1 mps 689 mmHg 55%
    23:00 +9°C° 0 mm 1 mps 689 mmHg 55%

    30 March, Thursday

    Time Temperature Precipitation Wind Pressure Humidity
    00:00 +9°C° 0 mm 1 mps 689 mmHg 56%
    01:00 +8°C° 0 mm 1 mps 689 mmHg 57%
    02:00 +8°C° 0 mm 1 mps 689 mmHg 57%
    03:00 +7°C° 0 mm 1 mps 689 mmHg 58%
    04:00 +7°C° 0 mm 1 mps 689 mmHg 58%
    05:00 +7°C° 0 mm 1 mps 689 mmHg 58%
    06:00 +6°C° 0 mm 1 mps 689 mmHg 59%
    07:00 +7°C° 0 mm 0 mps 689 mmHg 52%
    08:00 +10°C° 0 mm 0 mps 690 mmHg 46%
    09:00 +12°C° 0 mm 0 mps 690 mmHg 40%
    10:00 +14°C° 0 mm 1 mps 690 mmHg 38%
    11:00 +15°C° 0 mm 1 mps 689 mmHg 36%
    12:00 +16°C° 0 mm 1 mps 689 mmHg 35%
    13:00 +18°C° 0 mm 1 mps 689 mmHg 33%
    14:00 +18°C° 0 mm 1 mps 688 mmHg 32%
    15:00 +19°C° 0 mm 1 mps 688 mmHg 31%
    16:00 +18°C° 0 mm 1 mps 688 mmHg 34%
    17:00 +16°C° 0 mm 1 mps 688 mmHg 36%
    18:00 +15°C° 0 mm 1 mps 688 mmHg 38%
    19:00 +14°C° 0 mm 2 mps 688 mmHg 40%
    20:00 +13°C° 0 mm 2 mps 688 mmHg 42%
    21:00 +12°C° 0 mm 2 mps 688 mmHg 43%
    22:00 +10°C° 0 mm 2 mps 688 mmHg 45%
    23:00 +10°C° 0 mm 2 mps 688 mmHg 46%

    31 March, Friday

    Time Temperature Precipitation Wind Pressure Humidity
    00:00 +9°C° 0 mm 2 mps 688 mmHg 47%
    01:00 +9°C° 0 mm 2 mps 687 mmHg 49%
    02:00 +9°C° 0 mm 1 mps 687 mmHg 50%
    03:00 +9°C° 0 mm 1 mps 687 mmHg 52%
    04:00 +9°C° 0 mm 1 mps 687 mmHg 52%
    05:00 +8°C° 0 mm 1 mps 687 mmHg 53%
    06:00 +8°C° 0 mm 1 mps 687 mmHg 54%
    07:00 +10°C° 0 mm 1 mps 687 mmHg 49%
    08:00 +12°C° 0 mm 1 mps 687 mmHg 44%
    09:00 +13°C° 0 mm 1 mps 687 mmHg 39%
    10:00 +14°C° 0 mm 1 mps 687 mmHg 38%
    11:00 +16°C° 0 mm 1 mps 687 mmHg 37%
    12:00 +18°C° 0 mm 1 mps 687 mmHg 36%
    13:00 +18°C° 0 mm 1 mps 686 mmHg 36%
    14:00 +17°C° 0 mm 2 mps 686 mmHg 35%
    15:00 +18°C° 0 mm 2 mps 686 mmHg 35%
    16:00 +17°C° 0.1 mm 2 mps 686 mmHg 38%
    17:00 +16°C° 0.1 mm 2 mps 686 mmHg 42%
    18:00 +15°C° 0.1 mm 2 mps 686 mmHg 45%
    19:00 +14°C° 0.2 mm 2 mps 686 mmHg 50%
    20:00 +14°C° 0.2 mm 2 mps 687 mmHg 54%
    21:00 +13°C° 0.2 mm 2 mps 687 mmHg 59%
    22:00 +12°C° 0.1 mm 2 mps 687 mmHg 62%
    23:00 +12°C° 0.1 mm 2 mps 687 mmHg 65%

    1 April, Saturday

    Time Temperature Precipitation Wind Pressure Humidity
    00:00 +11°C° 0.1 mm 1 mps 687 mmHg 68%
    01:00 +11°C° 0.2 mm 1 mps 687 mmHg 69%
    02:00 +11°C° 0.2 mm 1 mps 687 mmHg 71%
    03:00 +10°C° 0.2 mm 1 mps 687 mmHg 73%
    04:00 +10°C° 0.2 mm 1 mps 687 mmHg 74%
    05:00 +10°C° 0.2 mm 1 mps 687 mmHg 75%
    06:00 +9°C° 0.2 mm 1 mps 687 mmHg 77%
    07:00 +9°C° 0.5 mm 2 mps 687 mmHg 74%
    08:00 +10°C° 0.5 mm 2 mps 687 mmHg 72%
    09:00 +10°C° 0.5 mm 2 mps 687 mmHg 69%
    10:00 +10°C° 0.9 mm 2 mps 687 mmHg 69%
    11:00 +10°C° 0.9 mm 2 mps 687 mmHg 70%
    12:00 +10°C° 0.9 mm 2 mps 687 mmHg 70%
    13:00 +12°C° 0.3 mm 1 mps 687 mmHg 68%
    14:00 +12°C° 0.3 mm 1 mps 687 mmHg 66%
    15:00 +13°C° 0.3 mm 1 mps 687 mmHg 64%
    16:00 +13°C° 0 mm 1 mps 687 mmHg 66%
    17:00 +12°C° 0 mm 1 mps 687 mmHg 68%
    18:00 +12°C° 0 mm 1 mps 687 mmHg 70%
    19:00 +11°C° 0 mm 1 mps 687 mmHg 73%
    20:00 +11°C° 0 mm 1 mps 687 mmHg 75%
    21:00 +10°C° 0 mm 1 mps 687 mmHg 77%
    22:00 +10°C° 0.1 mm 1 mps 686 mmHg 78%
    23:00 +9°C° 0.1 mm 1 mps 686 mmHg 79%
    Show more